Location: Feigenhofen
(48.4939°N, 10.7793°E)
Time: 16:41:27
(UTC+00:00)

USA 308 - Pass Details

Date: 26 May 2022
Orbit: 549 x 558 km, 54.0° (Epoch: 14 June)

Event Time Altitude Azimuth Distance (km) Brightness Sun altitude
Exits shadow 02:16:37 - 269° (W) 2,393 5.7 -9.3°
Reaches altitude 10° 02:18:03 10° 273° (W) 1,845 5.1 -9.2°
Maximum altitude 02:22:06 45° 347° (NNW) 774 3.9 -8.7°
Drops below altitude 10° 02:26:09 10° 61° (ENE) 1,854 7.0 -8.3°
Sets 02:28:29 0° 68° (ENE) 2,752 7.8 -8.0°
